#timestamp,LO_Frequency,Hit,StdDev 
1637395215.6,286046999.1,N
1637395235.5,286046997.4,Y
1637395255.3,286046999.3,P
1637395275.2,286046996.7,P
1637395295.9,286046997.2,N
1637395315.7,286046997.0,N
1637395335.6,286046996.8,N
1637395355.4,286046999.3,N
1637395375.3,286046999.1,N
1637395395.1,286046999.4,N
1637395396.0,286046999.4,N
1637395415.8,286046998.5,N
1637395435.7,286047001.2,N
1637395455.5,286047000.8,N
1637395475.4,286047000.8,N
1637395495.2,286046998.5,N
1637395515.0,286046998.8,N
1637395515.9,286046998.8,N
1637395535.8,286046998.4,N
1637395555.6,286046999.1,N
1637395575.5,286046998.2,N
1637395595.3,286046999.9,N
1637395615.1,286047002.6,N
1637395635.9,286047002.3,N
1637395655.7,286047002.6,N
1637395675.5,286047001.4,N
1637395695.4,286047001.3,N
1637395715.2,286047000.2,N
1637395735.1,286047000.3,N
1637395736.0,286047000.3,N
1637395755.8,286046999.8,N
1637395775.6,286046999.8,N
1637395795.5,286047001.2,N
1637395815.3,286047000.9,N
1637395835.1,286047000.3,N
1637395855.9,286047000.6,N
1637395875.7,286047000.1,N
1637395895.6,286047001.1,N
1637395915.4,286046996.5,N
1637395935.2,286047000.7,N
1637395955.1,286047001.0,N
1637395956.0,286047001.0,N
1637395975.8,286047000.5,N
1637395995.6,286047002.8,N
1637396015.5,286047000.4,N
1637396035.3,286047000.5,N
1637396055.2,286047000.5,N
1637396075.9,286047000.5,N
1637396095.7,286047001.0,N
1637396115.6,286047002.4,N
1637396135.4,286047003.6,N
1637396155.2,286047003.8,N
1637396175.1,286047004.1,Y
1637396176.0,286047004.1,P
1637396195.8,286047001.4,N
1637396215.7,286047002.2,N
1637396235.5,286047002.4,N
1637396255.3,286047002.5,N
1637396275.2,286047002.0,N
1637396295.0,286047002.3,N
1637396295.9,286047002.3,N
1637396315.8,286047002.3,N
1637396335.6,286047002.8,Y
1637396355.4,286046998.4,P
1637396375.3,286046998.2,N
1637396395.1,286046997.0,N
1637396415.8,286046999.4,N
1637396435.7,286046999.3,N
1637396455.5,286046999.0,N
1637396475.4,286046999.5,N
1637396495.2,286046996.5,N
1637396515.0,286046998.9,N
1637396515.9,286046998.9,N
1637396535.8,286046997.0,N
1637396555.6,286046998.3,N
1637396575.4,286047001.1,N
1637396595.3,286047000.8,N
1637396615.1,286046998.1,N
1637396635.9,286046998.6,N
1637396655.7,286046998.2,N
1637396675.6,286047001.1,N
1637396695.4,286047001.1,N
1637396715.2,286047000.7,N
1637396735.1,286046999.3,N
1637396736.0,286046999.3,N
1637396755.8,286047000.9,N
1637396775.7,286047000.0,N
1637396795.5,286046999.7,N
1637396815.3,286047002.3,N
1637396835.2,286047002.7,N
1637396855.9,286046999.7,N
1637396875.7,286047000.5,N
1637396895.6,286047000.8,N
1637396915.4,286046998.4,N
1637396935.3,286047001.2,N
1637396955.1,286046998.8,N
1637396956.0,286046998.8,N
1637396975.8,286046998.5,N
1637396995.7,286047000.7,N
1637397015.5,286046998.4,N
1637397035.3,286047000.9,N
1637397055.2,286047000.5,N
1637397075.0,286047000.8,N
1637397075.9,286047000.8,N
1637397095.8,286047000.6,N
1637397115.6,286046998.2,N
1637397135.4,286047001.2,N
1637397155.3,286047000.3,N
1637397175.1,286047000.0,N
1637397195.8,286047000.5,N
1637397215.7,286047000.4,N
1637397235.5,286047000.3,N
1637397255.4,286047000.8,N
1637397275.2,286047000.9,N
1637397295.0,286047001.1,N
1637397295.9,286047001.1,N
1637397315.8,286046998.4,N
1637397335.6,286046997.3,N
1637397355.5,286046999.0,N
1637397375.3,286046999.4,N
1637397395.1,286046998.1,N
1637397415.9,286047000.9,N
1637397435.7,286047001.1,N
1637397455.5,286047000.6,N
1637397475.4,286046998.5,N
1637397495.2,286046998.2,N
1637397515.1,286046998.8,N
1637397516.0,286046998.8,N
1637397535.8,286046998.8,N
1637397555.7,286047000.7,N
1637397575.5,286047000.8,N
1637397595.3,286046998.8,N
1637397615.2,286046998.7,N
1637397635.0,286046998.3,N
1637397635.9,286046998.3,N
1637397655.7,286047000.7,N
1637397675.6,286046999.8,N
1637397695.4,286047000.9,N
1637397715.3,286046998.3,N
1637397735.1,286047000.5,N
1637397755.8,286047001.3,N
1637397775.7,286047002.1,N
1637397795.5,286047002.6,N
1637397815.4,286046999.9,N
1637397835.2,286047002.5,N
1637397855.0,286047000.9,N
1637397855.9,286047000.9,N
1637397875.8,286047001.1,N
1637397895.6,286046998.6,N
1637397915.4,286046998.6,N
1637397935.3,286046999.6,N
1637397955.1,286046998.8,N
1637397975.9,286047000.6,N
1637397995.7,286047002.4,N
1637398015.5,286047002.6,N
1637398035.4,286047002.0,N
1637398055.2,286047002.3,N
1637398075.1,286047004.0,N
1637398076.0,286047004.0,N
1637398095.8,286047003.7,N
1637398115.6,286047004.4,N
1637398135.5,286047002.3,N
1637398155.3,286047000.4,N
1637398175.1,286047002.4,N
1637398195.9,286047002.3,N
1637398215.7,286047001.5,N
1637398235.6,286047001.6,N
1637398255.4,286047003.7,N
1637398275.2,286047004.1,N
1637398295.1,286047003.8,N
1637398296.0,286047003.8,N
1637398315.8,286047004.1,N
1637398335.7,286047004.4,N
1637398355.5,286047001.7,N
1637398375.3,286047003.7,N
1637398395.2,286047003.8,N
1637398415.0,286047002.2,N
1637398415.9,286047002.2,N
1637398435.7,286047002.3,N
1637398455.6,286047001.4,N
1637398475.4,286047003.9,N
1637398495.3,286047001.6,N
1637398515.1,286047000.1,N
1637398516.0,286047000.1,N
1637398535.8,286047002.8,N
1637398555.7,286047002.2,N
1637398575.5,286047001.4,N
1637398595.3,286047001.3,N
1637398615.2,286047001.7,N
1637398635.0,286047001.4,N
1637398635.9,286047001.4,N
1637398655.8,286047001.5,N
1637398675.6,286047004.4,Y
1637398695.5,286047000.8,P
1637398715.3,286046998.2,N
1637398735.2,286046999.0,N
1637398755.9,286046999.5,N
1637398775.7,286046999.0,N
1637398795.6,286046999.2,N
